CW6427 Weather Reports


Display with metric or nautical units.
time (UTC)temp
F
wind
direction
speed
MPH
gust
MPH
rain 1hr
in
rain 24hr
in
rain mn
in
humidity
%
barometer
mb
20260906134833 61 5 6.0 10.0 0.00 0.01 0.00 94 1019.5
20260906131833 59 13 7.0 11.0 0.00 0.01 0.00 99 1019.3
20260906130832 59 341 6.0 11.0 0.00 0.01 0.00 100 1019.4
20260906125832 58 355 8.0 11.0 0.00 0.01 0.00 100 1019.3
20260906124832 58 9 8.0 12.0 0.00 0.01 0.00 100 1019.2
20260906121902 58 355 3.0 10.0 0.00 0.01 0.00 100 1019.1
20260906120901 58 5 3.0 10.0 0.00 0.01 0.00 100 1019.1
20260906115901 58 360 3.0 7.0 0.00 0.01 0.00 100 1019.1
20260906114901 58 336 4.0 8.0 0.00 0.01 0.00 100 1019.0
20260906113831 58 19 4.0 8.0 0.00 0.01 0.00 100 1018.7
20260906112901 58 13 2.0 3.0 0.00 0.01 0.00 100 1018.7
20260906111831 58 21 2.0 4.0 0.00 0.01 0.00 100 1018.7
20260906110900 58 13 1.0 3.0 0.00 0.01 0.00 100 1018.6
20260906105900 58 19 1.0 3.0 0.00 0.01 0.00 100 1018.5
20260906104900 58 19 1.0 4.0 0.00 0.01 0.00 100 1018.4
20260906103830 58 26 3.0 6.0 0.00 0.01 0.00 100 1018.2
20260906102900 58 360 3.0 9.0 0.00 0.01 0.00 100 1018.2
20260906100859 57 349 0.0 2.0 0.00 0.01 0.00 100 1017.9
20260906094859 57 349 0.0 1.0 0.00 0.01 0.00 100 1017.9
20260906093858 58 349 0.0 1.0 0.00 0.01 0.00 100 1017.7
20260906092858 58 349 0.0 1.0 0.00 0.01 0.00 100 1017.4
20260906091858 58 349 0.0 3.0 0.00 0.01 0.00 100 1017.3
20260906090858 59 360 1.0 7.0 0.00 0.01 0.00 100 1017.3
20260906085858 59 342 1.0 3.0 0.00 0.01 0.00 100 1017.2
20260906084858 59 214 0.0 1.0 0.00 0.01 0.00 100 1017.2
20260906083858 59 214 0.0 1.0 0.00 0.01 0.00 100 1017.1
20260906082857 59 214 1.0 1.0 0.00 0.01 0.00 100 1017.1
20260906081857 59 214 0.0 1.0 0.00 0.01 0.00 100 1017.0
20260906080857 58 214 0.0 1.0 0.00 0.01 0.00 100 1016.7
20260906075857 58 214 0.0 2.0 0.00 0.01 0.00 100 1016.9
20260906074857 59 214 0.0 1.0 0.00 0.01 0.00 99 1017.0
20260906064856 60 214 0.0 2.0 0.00 0.01 0.00 99 1016.8
20260906062855 59 146 1.0 2.0 0.00 0.01 0.00 100 1017.0
20260906055855 58 145 0.0 1.0 0.00 0.01 0.00 99 1016.9
20260906054855 58 146 0.0 2.0 0.00 0.01 0.00 98 1017.0
20260906053855 59 145 0.0 1.0 0.00 0.01 0.00 99 1017.2
20260906050854 59 79 1.0 2.0 0.00 0.01 0.00 99 1017.2
20260906045854 60 79 1.0 1.0 0.00 0.01 0.00 98 1017.2
20260906043854 60 79 0.0 2.0 0.00 0.01 0.00 98 1017.2
20260906041853 60 79 2.0 2.0 0.00 0.01 0.00 98 1017.3
20260906040853 60 79 0.0 2.0 0.00 0.01 0.00 98 1017.3
20260906035853 60 79 0.0 3.0 0.00 0.01 0.01 98 1017.0
20260906034853 61 24 1.0 7.0 0.00 0.01 0.01 98 1017.2
20260906033853 61 311 6.0 8.0 0.00 0.01 0.01 98 1017.1
20260906032853 61 315 4.0 4.0 0.00 0.01 0.01 98 1017.0
20260906031853 61 22 2.0 5.0 0.00 0.01 0.01 98 1017.0
20260906030852 60 345 3.0 5.0 0.00 0.01 0.01 98 1016.9
20260906023852 59 11 0.0 2.0 0.00 0.01 0.01 97 1016.9
20260906022852 60 11 1.0 3.0 0.00 0.01 0.01 98 1016.9
20260906021852 59 130 0.0 2.0 0.00 0.01 0.01 97 1016.8
20260906020851 60 130 0.0 1.0 0.00 0.01 0.01 97 1016.7
20260906015851 60 130 0.0 2.0 0.00 0.01 0.01 97 1016.6
20260906013851 60 130 3.0 3.0 0.00 0.01 0.01 95 1016.4
20260906012850 61 69 2.0 5.0 0.00 0.01 0.01 94 1016.5
20260906011851 62 317 5.0 7.0 0.00 0.01 0.01 94 1016.5
20260906010851 62 332 4.0 9.0 0.00 0.01 0.01 94 1016.5
20260906005850 63 334 3.0 11.0 0.00 0.01 0.01 94 1016.6
20260906004850 62 332 5.0 10.0 0.00 0.01 0.01 94 1016.6
20260906003850 62 360 3.0 8.0 0.00 0.01 0.01 95 1016.5
20260906002849 61 340 4.0 4.0 0.00 0.01 0.01 94 1016.2
20260906000849 62 310 0.0 2.0 0.00 0.01 0.01 92 1016.2
20260905235849 63 310 0.0 4.0 0.00 0.01 0.01 92 1016.0
20260905233849 63 304 1.0 4.0 0.00 0.01 0.01 91 1016.0
20260905231849 64 304 2.0 4.0 0.00 0.01 0.01 89 1016.2
20260905225848 65 308 3.0 8.0 0.00 0.01 0.01 88 1016.0
20260905224848 66 323 5.0 9.0 0.00 0.01 0.01 86 1016.2
20260905223848 67 311 5.0 11.0 0.00 0.01 0.01 84 1016.1
20260905222847 67 317 5.0 11.0 0.00 0.01 0.01 83 1016.1
20260905221847 67 321 5.0 12.0 0.00 0.01 0.01 85 1016.0
20260905220847 67 340 6.0 10.0 0.00 0.01 0.01 87 1015.7
20260905215847 67 323 8.0 11.0 0.00 0.01 0.01 88 1015.8
20260905214846 67 330 9.0 10.0 0.00 0.01 0.01 88 1015.6
20260905212847 67 14 3.0 5.0 0.01 0.01 0.01 90 1015.2
20260905205846 65 292 1.0 4.0 0.01 0.01 0.01 92 1015.2
20260905203846 66 341 3.0 6.0 0.00 0.00 0.00 89 1015.4
20260905200845 68 304 7.0 7.0 0.00 0.00 0.00 84 1015.4
20260905195845 69 323 2.0 8.0 0.00 0.00 0.00 82 1015.6
20260905194845 69 313 3.0 9.0 0.00 0.00 0.00 81 1015.4
20260905193845 69 315 5.0 9.0 0.00 0.00 0.00 79 1015.3
20260905192844 70 329 5.0 11.0 0.00 0.00 0.00 78 1015.4
20260905191844 70 5 4.0 9.0 0.00 0.00 0.00 78 1015.2
20260905190844 69 337 3.0 9.0 0.00 0.00 0.00 80 1015.5
20260905184844 69 301 3.0 11.0 0.00 0.00 0.00 78 1015.4
20260905183843 70 322 3.0 8.0 0.00 0.00 0.00 79 1015.4
20260905182843 70 344 2.0 8.0 0.00 0.00 0.00 77 1015.5
20260905181843 70 334 5.0 9.0 0.00 0.00 0.00 75 1015.3
20260905180843 71 334 8.0 9.0 0.00 0.00 0.00 75 1015.4
20260905175843 72 319 3.0 9.0 0.00 0.00 0.00 74 1015.5
20260905174843 70 323 3.0 8.0 0.00 0.00 0.00 76 1015.4
20260905173842 71 18 4.0 6.0 0.00 0.00 0.00 76 1015.5
20260905172842 70 84 1.0 11.0 0.00 0.00 0.00 77 1015.4
20260905171842 70 360 4.0 12.0 0.00 0.00 0.00 78 1015.4
20260905170842 70 22 10.0 12.0 0.00 0.00 0.00 76 1015.4
20260905165842 70 5 8.0 12.0 0.00 0.00 0.00 76 1015.5
20260905163841 69 34 1.0 8.0 0.00 0.00 0.00 80 1015.6
20260905161841 69 26 4.0 13.0 0.00 0.00 0.00 79 1015.7
20260905155840 68 11 3.0 11.0 0.00 0.00 0.00 79 1015.6
20260905154841 67 5 5.0 11.0 0.00 0.00 0.00 83 1015.5
20260905153840 68 360 9.0 13.0 0.00 0.00 0.00 81 1015.6
20260905152840 68 71 3.0 12.0 0.00 0.00 0.00 83 1015.5
20260905150840 67 9 1.0 12.0 0.00 0.01 0.00 85 1015.5
20260905145840 66 323 8.0 11.0 0.00 0.01 0.00 86 1015.5
20260905144839 65 292 10.0 13.0 0.00 0.01 0.00 86 1015.5
20260905142839 66 331 3.0 9.0 0.00 0.01 0.00 86 1015.5
20260905141839 65 24 3.0 10.0 0.00 0.01 0.00 87 1015.6
20260905140839 65 344 6.0 11.0 0.00 0.01 0.00 88 1015.6